RH
58 60 45 39 42 45 51 59 69 72 76 78 82 90 75 43 41 42 47 78 87 83 75 74 53 47 44 49 52 51 47 39
53 59 53 46 40 40 51 66 74 71 74 81 86 78 44 48 56 57 52 64 86 82 56 49 48 58 57 57 48 37 36 35
33 43 54 47 46 50 57 62 68 76 81 84 75 48 56 65 70 65 65 64 60 62 62 66 62 62 62 46 43 39 37 30
31 40 47 51 52 55 60 64 76 72 70 69 53 57 63 64 71 71 72 69 73 74 69 70 71 69 49 46 41 37 31 24
58 44 47 52 56 60 62 67 68 72 57 55 61 69 62 67 70 67 74 71 79 68 85 80 79 55 48 44 39 32 24 15
75 65 49 52 51 53 50 66 62 55 54 57 62 58 64 65 74 87 97 98 95 99 93 78 65 57 48 40 29 20 12 8
90 83 58 42 34 42 57 57 53 57 61 58 63 68 76 84 93 100 100 100 100 100 87 74 60 44 30 21 14 9 6 5
80 74 61 38 42 52 54 56 63 60 55 59 66 74 86 92 92 99 99 97 93 99 80 65 43 31 23 17 10 6 5 5
62 55 39 41 55 57 60 66 66 54 58 64 72 80 88 100 100 99 100 98 98 77 71 51 38 31 22 12 6 5 4 5
62 56 45 57 61 62 69 71 60 52 51 60 74 90 98 93 93 99 100 97 84 78 55 42 38 26 15 7 5 5 5 7
64 62 56 61 66 70 80 72 60 56 59 76 89 88 96 100 100 99 99 78 72 64 50 44 32 17 8 5 5 6 8 9
71 70 83 91 94 89 74 79 82 73 79 92 99 100 100 98 100 99 83 76 71 56 45 35 20 11 6 6 6 8 10 13
60 75 90 92 95 98 100 93 82 87 94 100 100 99 99 99 100 93 84 78 64 40 52 22 12 7 6 7 9 11 13 16
73 81 85 89 91 100 100 100 99 98 99 100 100 99 97 99 97 94 84 58 33 77 41 23 12 6 7 9 12 15 17 22
72 76 85 91 94 100 100 97 88 98 100 100 98 97 99 98 96 87 72 52 73 65 51 16 6 8 10 13 15 19 22 28
71 78 84 85 85 73 81 80 83 97 100 100 97 98 98 93 94 88 74 92 90 80 28 8 8 12 16 19 19 23 30 42
64 72 70 73 75 76 52 57 74 93 99 99 99 100 98 98 98 94 95 95 80 22 8 9 11 16 21 20 27 31 39 89
64 71 75 60 61 50 47 66 74 83 93 96 99 98 98 99 96 96 88 41 10 9 10 12 15 21 21 25 31 38 50 88
59 67 76 75 79 81 81 84 86 97 99 96 93 95 96 95 86 35 15 8 9 10 14 18 21 24 26 31 39 45 55 68
Wind_Speed
11 11 6 4 3 4 4 7 12 12 14 16 18 19 13 13 13 12 14 24 28 32 33 27 29 32 33 34 34 37 40 41
14 15 14 11 8 9 11 12 14 15 18 20 19 14 11 8 10 11 11 15 24 26 26 28 29 31 33 33 39 39 37 39
11 14 21 19 14 15 17 18 15 21 23 20 15 12 11 15 11 11 13 15 19 24 26 27 28 28 31 36 37 37 38 38
15 17 20 21 20 20 19 20 21 23 20 14 14 15 19 17 13 14 16 21 21 23 24 28 30 32 34 34 36 37 37 36
20 21 23 23 20 20 21 24 23 18 13 17 18 19 19 16 17 16 19 17 25 26 29 33 33 34 36 37 38 39 39 39
26 26 22 25 24 22 21 17 15 14 20 19 18 18 20 20 21 22 25 27 29 32 35 33 34 35 36 38 39 40 40 40
25 25 24 20 19 17 16 17 17 17 16 16 16 19 19 21 22 23 25 27 34 39 36 39 39 38 39 39 39 40 40 40
31 31 29 20 18 18 18 16 14 14 16 18 18 20 21 23 26 27 31 30 35 36 35 34 35 36 37 38 38 38 40 42
34 28 22 16 15 15 16 17 16 16 16 18 19 21 24 26 28 37 38 35 34 36 33 33 33 36 37 38 37 38 40 41
24 22 20 14 17 17 18 20 21 20 17 17 19 22 26 30 34 41 44 33 32 33 33 32 35 37 38 38 39 39 40 38
20 21 21 19 19 19 22 25 26 24 21 21 23 29 31 31 34 40 39 34 34 32 32 34 37 38 39 39 38 38 38 37
18 20 23 24 23 21 22 25 27 28 28 29 28 30 32 40 39 39 35 35 35 34 35 37 38 40 38 38 37 36 36 36
16 19 24 25 26 25 28 29 29 30 31 34 33 35 38 37 40 35 35 37 37 35 37 38 40 40 36 36 37 35 34 35
20 20 24 27 29 29 30 33 37 37 36 31 33 34 36 41 34 33 34 34 33 36 35 38 42 40 39 37 35 35 35 33
20 22 28 32 33 35 37 39 40 36 33 37 35 40 38 37 31 32 33 35 36 33 36 40 41 38 38 37 36 35 36 33
22 27 32 34 38 41 41 40 35 34 36 35 39 37 41 38 41 34 34 36 31 32 39 42 39 36 36 35 36 36 36 32
26 30 33 36 40 40 36 33 35 37 35 35 37 39 44 41 41 40 32 29 31 36 40 40 37 35 35 34 34 34 32 25
25 29 35 37 35 32 32 36 39 38 34 38 39 42 41 43 36 27 28 30 33 36 38 39 36 33 35 33 33 32 29 25
26 28 31 32 33 35 38 41 41 39 38 42 44 49 36 22 27 28 31 33 34 36 37 36 34 34 34 33 32 31 29 29
Wind_Direction
205 214 238 236 222 237 272 273 282 287 297 302 301 300 290 280 274 279 279 269 267 265 280 276 289 290 293 298 304 305 306 307
217 225 232 241 289 318 302 288 285 293 293 293 291 279 268 266 292 292 280 264 265 271 276 284 286 292 296 300 303 306 305 304
209 223 223 258 275 282 289 290 280 284 288 288 277 271 288 304 294 288 287 270 269 273 281 285 291 294 298 301 303 304 303 304
237 229 238 249 263 274 277 280 280 282 279 271 274 296 302 304 287 294 295 275 279 283 288 291 297 304 303 300 299 303 306 307
253 241 241 245 253 259 267 270 265 265 270 289 307 297 295 287 280 287 291 286 284 293 293 300 304 301 297 301 307 311 312 312
263 263 243 240 250 257 258 256 263 267 284 299 290 290 297 305 311 311 314 308 312 307 301 301 304 306 309 312 314 314 313 312
245 257 268 268 257 254 247 239 252 278 291 287 283 294 303 308 305 299 298 307 306 307 311 313 312 314 315 314 312 309 309 308
250 256 265 260 249 242 246 258 276 284 285 289 293 292 293 292 296 301 294 295 311 299 309 304 305 307 307 306 306 307 307 308
245 259 260 253 245 244 255 269 277 279 280 289 293 290 286 285 284 303 295 286 303 306 302 300 303 305 306 306 307 308 307 307
254 265 263 251 236 246 255 266 266 273 287 295 290 277 272 292 293 305 283 301 304 302 302 306 307 307 308 309 312 311 307 307
254 262 260 262 249 245 254 261 272 284 298 304 297 295 294 282 287 301 297 310 305 302 304 306 309 311 312 314 310 308 307 306
259 260 256 266 271 273 272 273 274 280 295 301 298 292 292 288 296 295 308 308 305 306 309 313 313 311 314 311 310 309 309 307
267 251 245 254 265 269 264 282 285 285 286 286 281 292 294 293 292 307 311 308 307 308 312 313 312 314 314 311 311 311 309 303
260 246 243 250 258 254 262 269 283 284 279 277 281 280 291 288 306 308 305 303 301 307 312 311 311 316 313 313 313 312 310 306
252 249 248 247 251 251 260 275 283 279 277 284 284 292 289 298 304 299 295 293 299 308 312 310 313 314 314 315 314 311 308 306
241 243 244 251 262 272 277 283 281 280 284 281 290 289 290 302 289 290 288 296 309 316 312 312 316 315 313 313 313 311 309 306
244 246 258 268 274 275 279 283 283 285 282 285 286 292 291 288 288 286 304 315 326 315 311 312 314 315 312 313 310 309 305 293
251 256 261 272 273 281 287 285 285 285 288 285 279 280 282 287 302 312 332 326 312 310 311 314 317 313 310 310 308 310 306 297
261 265 271 278 277 279 282 284 287 289 289 287 289 287 299 313 337 330 318 317 316 316 315 316 313 310 309 309 309 310 306 299